www.pogodaiklimat.ru

Погода и климат >> Архив погоды >> Россия >> Амурская область >> Лопча


ПОГОДА в Лопче

  • Прогноз погоды в Лопче
  • Монитор погоды в Лопче

АРХИВ ПОГОДЫ в Лопче

Время (UTC), дата Ветер
(напр.,м/с)
 
Видим.   Явления Облачность Т
(С)
Тd
(С)
f
(%)
Тe
(С)
Тes
(С)
Комфортность P
(гПа)
Po
(гПа)
Тmin
(С)
Tmax
(С)
R
(мм)
R24
(мм)
S
(см)
15 12.06 штиль 0 50 км {ливн. осадки} 10/10 600 м
[Cb cap]
+11.0 +10.4 96 +10 +10 1004.1 937.3
18 12.06 С 1 50 км {ливн. осадки} 10/3 600 м
[Cb cap As op]
+8.8 +6.9 88 +8 +8 1007.6 940.0
21 12.06 С 2 50 км {ливн. осадки} 10/4 600 м
[Frnb As op]
+8.6 +3.2 69 +7 +7 1009.1 941.3
00 13.06 С 2 10 км в посл. час ливневой дождь 10/8 600 м
[Cb cap As trans]
+9.5 +5.1 74 +8 +9 1009.8 942.2 +8.6 5
03 13.06 СЗ 2 50 км 10 баллов +13.0 +3.1 51 +13 +13 1010.9 944.0
06 13.06 С 1 50 км 10/10 600 м
[Cb cap]
+15.1 +4.2 48 +16 +16 1009.0 942.7
09 13.06 С 1 50 км 9 баллов +16.0 +4.1 45 +17 +17 1010.2 944.0
12 13.06 СВ 1 50 км 3/0
[Ac lent]
+10.1 +6.9 81 +10 +10 1011.2 943.7 +16.0
15 13.06 С 1 50 км 4 балла +6.2 +5.3 94 +5 +5 1014.0 945.3
18 13.06 штиль 0 10 км в посл. час ливневой дождь 10/8 600 м
[Cb cap As trans]
+3.3 +2.3 93 +2 +2 1016.3 946.7 +8.6 5
21 13.06 штиль 0 10 км 6/0
[Cc]
+2.6 +1.3 91 +1 +2 1016.5 946.7
00 14.06 ЮЗ 1 50 км 1/0
[Ci fib]
+12.1 +4.9 61 +12 +22 1013.4 946.1 +2.5
03 14.06 Ю 1 50 км 5/5 1000 м
[Cu med, cong]
+17.0 +3.6 41 +18 +27 1012.9 946.7
06 14.06 ЮВ 1 50 км 8/8 1000 м
[Cu Sc]
+17.8 +6.3 47 +19 +24 1012.7 946.7
09 14.06 ЮВ 1 50 км 3/3 1000 м
[Cu hum]
+19.4 +7.5 46 +21 +25 комфорт 1012.3 946.7
12 14.06 СВ 1 50 км ясно +13.3 +8.1 71 +14 +14 1012.7 945.8 +20.4
15 14.06 штиль 0 50 км 3/0
[Ac lent Ci sp]
+11.1 +6.8 75 +11 +11 1015.6 948.0
18 14.06 штиль 0 50 км 9/0
[Ac As]
+8.5 +7.4 93 +8 +8 1016.3 948.0
21 14.06 штиль 0 50 км 9/9 1000 м
[Sc]
+8.3 +7.9 97 +7 +7 1016.3 948.0
00 15.06 штиль 0 50 км 10/10 1000 м
[Sc]
+13.4 +9.3 76 +13 +13 1012.8 946.0 +8.0
03 15.06 ЮВ 2 50 км 10/8 600 м
[Cb cap Ci sp]
+18.8 +9.1 53 +20 +22 1009.7 944.3
06 15.06 Ю 2 50 км 8/0
[Ac cuf Ci sp]
+23.7 +10.4 43 +25 +29 комфорт 1007.0 942.7
09 15.06 ЮВ 1 50 км 4/3 600 м
[Cb cap Ci fib]
+24.2 +7.3 34 +24 +27 комфорт 1006.9 942.7
12 15.06 В 1 50 км 9/8 1000 м
[Sc diur, vesp Ci sp]
+18.2 +9.3 56 +19 +19 1007.1 941.7 +24.4
15 15.06 ЮВ 1 50 км 3/0
[Ci fib]
+14.1 +8.9 71 +15 +15 1009.2 942.7
18 15.06 В 1 50 км 1/0
[Ci fib]
+11.4 +6.9 74 +11 +11 1009.9 942.7
21 15.06 штиль 0 50 км 8/4 1000 м
[Cu hum Ac lent]
+9.1 +7.5 90 +8 +9 1010.4 942.7
00 16.06 З 1 50 км 3/0
[Ac cast]
+16.1 +8.5 61 +17 +25 1007.4 941.5 +9.1
03 16.06 СЗ 1 50 км ясно +22.2 +10.3 47 +24 +42 комфорт 1005.8 941.3
06 16.06 З 2 50 км ясно +26.8 +10.9 37 +28 +41 жарко 1002.0 938.7
09 16.06 З 2 20 км 8/4 600 м
[Cb cap Ac cast]
+25.3 +11.5 42 +27 +28 жарко 1002.3 938.7
12 16.06 В 1 20 км {ливн. осадки} 4/3 600 м
[Cb cap Ac cast]
+17.2 +12.3 73 +18 +18 1005.4 940.0 +28.8 0.8
15 16.06 штиль 0 20 км 4/0
[Ci ing]
+14.4 +10.2 76 +14 +14 1010.5 944.0
18 16.06 С 1 20 км 2 балла +11.6 +8.6 82 +11 +11 1012.6 945.3
21 16.06 СВ 1 20 км ясно +6.4 +6.0 97 +5 +6 1015.4 946.7
00 17.06 ЮЗ 1 20 км ясно +15.0 +8.3 64 +16 +25 1011.6 945.3 +6.2
03 17.06 ЮЗ 1 50 км ясно +21.2 +8.5 44 +22 +40 комфорт 1010.3 945.3
06 17.06 ЮЗ 2 50 км 2 балла +25.0 +6.2 30 +25 +35 комфорт 1008.1 944.0
09 17.06 ЮЗ 1 50 км ясно +26.2 +7.2 30 +26 +31 жарко 1006.5 942.7
12 17.06 СВ 1 50 км 3/0
[Ac cast]
+18.4 +9.5 56 +20 +20 1006.3 941.0 +26.8
15 17.06 штиль 0 50 км ясно +12.1 +7.0 71 +12 +12 1009.7 942.7
18 17.06 СВ 1 50 км 4 балла +8.7 +6.8 88 +8 +8 1010.5 942.7
21 17.06 штиль 0 50 км 8/0
[Ac As]
+9.0 +7.4 90 +8 +9 1010.5 942.7
00 18.06 З 1 50 км 3/0
[Ac cast]
+16.2 +9.5 64 +17 +25 1007.1 941.3 +8.1
03 18.06 Ю 1 20 км 6 баллов +25.2 +4.9 27 +25 +32 комфорт 1003.8 940.0
06 18.06 С 1 10 км 2 балла +28.8 +3.6 20 +27 +39 жарко 1001.7 938.7
09 18.06 С 2 10 км 1 балл +28.3 +5.2 23 +27 +31 жарко 1000.3 937.3
12 18.06 СВ 1 10 км 1/0
[Cc]
+20.4 +7.4 43 +23 +23 комфорт 1001.2 936.6 +29.7
15 18.06 СВ 1 10 км ясно +16.1 +5.1 48 +17 +17 1004.5 938.7
18 18.06 штиль 0 10 км ясно +13.5 +6.1 61 +13 +13 1006.5 940.0
21 18.06 штиль 0 20 км ясно +9.5 +6.2 80 +9 +10 1008.9 941.3
00 19.06 З 1 20 км ясно +19.0 +9.1 53 +21 +30 комфорт 1005.5 940.4 +9.5
03 19.06 С 2 20 км 2 балла +25.2 +6.9 31 +25 +38 комфорт 1003.8 940.0
06 19.06 СВ 2 20 км 6 баллов +27.4 +7.3 28 +27 +32 жарко 1003.3 940.0
09 19.06 СВ 1 20 км 7 баллов +25.7 +5.8 28 +25 +27 комфорт 1003.7 940.0
12 19.06 СВ 1 20 км 3/3 1000 м
[Sc Ci fib]
+20.4 +6.3 40 +22 +22 комфорт 1005.5 940.6 +27.4

 

Местоположение метеостанции Лопча (Амурская область, Россия): широта 55.77 долгота 122.70 высота над уровнем моря 579 м.

В архиве по умолчанию представлена погода в Лопче за последнюю неделю. Архивные данные за месяц целиком и за предыдущие месяцы, начиная с января 2011 года, Вы можете получить, выбрав интересующий диапазон дат из раскрывающегося списка и нажав кнопку "Ввод!".


*Определитесь, кто Вы:
робот инопланетянин человек

Внимание! Время в таблицах - всемирное. Для получения местного времени необходимо прибавить поправку, которая равна 9 ч.

Смотрите также архив погоды в соседних городах и на ближайших метеорологических станциях:

Погода в Усть-Нюкже (Амурская область, Россия) (117 км)
Погода в Нагорном (Якутия, Россия) (133 км)
Погода в Тынде (Амурская область, Россия) (137 км)
Погода в Средней Олекме (Забайкальский край, Россия) (143 км)
Погода в Нерюнгри (Якутия, Россия) (178 км)
Погода в Ерофей Павловиче (Амурская область, Россия) (207 км)
Погода в Сковородино (Амурская область, Россия) (211 км)
Погода в Тупике (Забайкальский край, Россия) (232 км)
Погода в Амазаре (Забайкальский край, Россия) (244 км)
Погода в Игнасино (Амурская область, Россия) (257 км)

Пояснения к столбцам:

Ветер - указаны скорость ветра в м/с - средняя за 10 мин, порывы в срок и между сроками (в фигурных скобках) и направление, откуда дует ветер: С - северный, СВ - северо-восточный, В - восточный, ЮВ - юго-восточный, Ю - южный, ЮЗ - юго-западный, З - западный, СЗ - северо-западный.
Видимость - горизонтальная дальность видимости в метрах или километрах. При видимости от 1 до 10 км при отсутствии осадков обычно наблюдается дымка, при ухудшении видимости до 1 км и менее - туман. В сухую погоду видимость может ухудшаться дымом, пылью или мглою.
Явления - указаны атмосферные явления, наблюдавшиеся в срок или в последний час перед сроком; фигурными скобками обозначены явления, наблюдавшиеся между сроками (за 1-3 часа до срока); квадратными скобками обозначены град или гололедные отложения с указанием их диаметра в мм.
Облачность - указаны через наклонную черту общая и нижняя облачность в баллах и высота нижней границы облаков в метрах; квадратными скобками обозначены формы облаков: Ci - перистые, Cs - перисто-слоистые, Cc - перисто-кучевые, Ac - высококучевые, As - высокослоистые, Sc - слоисто-кучевые, Ns - слоисто-дождевые, Cu - кучевые, Cb - кучево-дождевые. Подробнее классификацию облаков см. в Атласе облаков (PDF).
T - Температура воздуха - температура, измеренная на высоте 2 м над землей.
Td - Температура точки росы - температура, при понижении до которой содержащийся в воздухе водяной пар достигнет насыщения.
f - Относительная влажность воздуха - влажноcть воздуха, измеренная на высоте 2 м над землей.
Te - Эффективная температура - температура, которую ощущает одетый по сезону человек в тени. Характеристика душности погоды. При расчете учитывается влияние влажности воздуха и скорости ветра на теплоощущения человека.
Tes - Эффективная температура на солнце - температура, которую ощущает человек, с поправкой на солнечный нагрев. Характеристика знойности погоды. Зависит от высоты солнца над горизонтом, облачности и скорости ветра. Ночью, в пасмурную погоду, а также при ветре 12 м/с и более поправка равна нулю.
P - Атмосферное давление - приведенное к уровню моря атмосферное давление.
Po - Атмосферное давление - измеренное на уровне метеостанции атмосферное давление.
Tmin - Минимальная температура - минимум температуры воздуха на высоте 2 м над землей.
Tmax - Максимальная температура - максимум температуры воздуха на высоте 2 м над землей.
R - Количество осадков - Количество выпавших осадков за период времени, мм. При наведении курсора мыши на число - период времени, за который выпало указанное количество осадков.
R24 - Количество осадков - Количество выпавших осадков за 24 часа, мм.
S - Снежный покров - Высота снежного покрова, см. При наведении курсора мыши на число - состояние снежного покрова и степень покрытия местности в баллах.